sat.trackr.live / text

‹ back to catalog

STARLINK-31959

NORAD 59925 · 2024-106D

PAYLOAD ACTIVE UNKNOWN

§ Identity

Operator
Country
US
Launch date
2024-06-01
Launch site
AFETR
Launch vehicle
Mass (kg)
RCS (m²)

Purposes: comms

External: N2YO · Heavens-Above · Gunter

§ Orbital elements

Epoch: 2026-05-24T17:12:14.510304Z

Period
94.27 min
Inclination
43.0016°
Eccentricity
0.0001319
Mean motion
15.27581412 rev/d
Perigee alt
482.1 km
Apogee alt
483.9 km
Semi-major
6,861.2 km
B*
9.6261e-5
RAAN
259.3241°
Arg perigee
254.8204°
Mean anomaly
105.2502°
Rev number
11,219

§ Raw data

STARLINK-319591 59925U 24106D   26144.71683461  .00002388  00000+0  96261-4 0  99942 59925  43.0016 259.3241 0001319 254.8204 105.2502 15.27581412112196

JSON: /api/v1/satellites/59925 · /tle

For live sub-satellite position, see the globe view (requires WebGL).

§ Visibility from observer

Set your observer location to see the next 7 days of passes ≥ 10°. The values pass through the URL so the page stays shareable.

No JS? Fill the form by hand. The geolocation button needs JavaScript.